sat.trackr.live / text

‹ back to catalog

STARLINK-4168

NORAD 52845 · 2022-062R

PAYLOAD ACTIVE UNKNOWN

§ Identity

Operator
Country
US
Launch date
2022-06-17
Launch site
AFETR
Launch vehicle
Mass (kg)
RCS (m²)

Purposes: comms

External: N2YO · Heavens-Above · Gunter

§ Orbital elements

Epoch: 2026-09-20T04:14:51.953280Z

Period
94.01 min
Inclination
53.1599°
Eccentricity
0.0001306
Mean motion
15.31700574 rev/d
Perigee alt
469.8 km
Apogee alt
471.6 km
Semi-major
6,848.9 km
B*
8.8673e-6
RAAN
230.3327°
Arg perigee
84.2274°
Mean anomaly
275.8877°
Rev number
23,529

§ Raw data

STARLINK-41681 52845U 22062R   26263.17699020 -.00000090  00000+0  88673-5 0  99952 52845  53.1599 230.3327 0001306  84.2274 275.8877 15.31700574235293

JSON: /api/v1/satellites/52845 · /tle

For live sub-satellite position, see the globe view (requires WebGL).

§ Visibility from observer

Set your observer location to see the next 7 days of passes ≥ 10°. The values pass through the URL so the page stays shareable.

No JS? Fill the form by hand. The geolocation button needs JavaScript.